Weather History for Fort Myers, FL

Change the Weather History Date:

Friday, August 2, 2013

  Actual Average Record
Temperature  
Mean Temperature 82 °F 84 °F  
Max Temperature 92 °F 92 °F 96 °F (1942)
Min Temperature 72 °F 75 °F 70 °F (1943)
Degree Days  
Heating Degree Days 0 0  
Month to date heating degree days 0 0  
Since 1 June heating degree days 0 0  
Since 1 July heating degree days 0 0  
Cooling Degree Days 17 18  
Month to date cooling degree days 36 36  
Year to date cooling degree days 2201 2191  
Since 1 June cooling degree days 1063 1125  
Growing Degree Days 32 (Base 50)    
Moisture  
Dew Point 73 °F    
Average Humidity 82    
Maximum Humidity 100    
Minimum Humidity 56    
Precipitation  
Precipitation 0.78 in 0.31 in 1.87 in (1948)
Month to date precipitation 0.99 0.62  
Year to date precipitation 31.53 31.55  
Sea Level Pressure  
Sea Level Pressure 30.01 in    
Wind  
Wind Speed 4 mph (SW)    
Max Wind Speed 21 mph    
Max Gust Speed 29 mph    
Visibility 8 miles    
Events Rain , Thunderstorm    
T = Trace of Precipitation, MM = Missing Value Source: NWS Daily Summary

Daily Weather History Graph

Daily Weather History Graph

Search for Another Location

Airport:

Trip Planner

Search our weather history database for the weather conditions in past years. The results will help you decide how hot, cold, wet, or windy it might be!

Date:

Astronomy

Aug. 02, 2013 Rise Set
Actual Time 6:53 AM EDT 8:13 PM EDT
Civil Twilight 6:28 AM EDT 8:38 PM EDT
Nautical Twilight 5:58 AM EDT 9:08 PM EDT
Astronomical Twilight 5:27 AM EDT 9:38 PM EDT
Moon 3:16 AM EDT 5:06 PM EDT
Length of Visible Light 14h 10m
Length of Day
13h 20m
Waning Crescent, 16% of the Moon is Illuminated
Aug 2
Waning Crescent
Aug 6
New
Aug 14
First Quarter
Aug 20
Full
Aug 28
Last Quarter

Hourly Weather History & Observations

Time (EDT) Temp. Heat Index Dew Point Humidity Pressure Visibility Wind Dir Wind Speed Gust Speed Precip Events Conditions
12:53 AM 75.9 °F - 73.9 °F 94% 29.99 in 10.0 mi Calm Calm - N/A   Clear
1:53 AM 75.0 °F - 73.0 °F 94% 29.97 in 10.0 mi Calm Calm - N/A   Clear
2:53 AM 75.0 °F - 73.9 °F 96% 29.96 in 10.0 mi Calm Calm - N/A   Clear
3:53 AM 73.9 °F - 73.0 °F 97% 29.96 in 10.0 mi Calm Calm - N/A   Clear
4:53 AM 73.9 °F - 73.0 °F 97% 29.95 in 10.0 mi Calm Calm - N/A   Clear
5:53 AM 73.0 °F - 73.0 °F 100% 29.97 in 10.0 mi Calm Calm - N/A   Clear
6:53 AM 73.0 °F - 73.0 °F 100% 29.98 in 10.0 mi Calm Calm - N/A   Clear
7:53 AM 73.9 °F - 73.9 °F 100% 29.98 in 10.0 mi Calm Calm - N/A   Clear
8:53 AM 78.1 °F - 73.0 °F 84% 29.99 in 10.0 mi Calm Calm - N/A   Clear
9:53 AM 81.0 °F 85.2 °F 72.0 °F 74% 30.00 in 10.0 mi Calm Calm - N/A   Clear
10:53 AM 84.9 °F 90.7 °F 72.0 °F 65% 30.02 in 10.0 mi WNW 3.5 mph - N/A   Clear
11:53 AM 87.1 °F 93.6 °F 72.0 °F 61% 30.03 in 10.0 mi West 5.8 mph - N/A   Clear
12:53 PM 89.1 °F 96.0 °F 72.0 °F 57% 30.03 in 10.0 mi NW 5.8 mph - N/A   Partly Cloudy
1:53 PM 90.0 °F 96.4 °F 71.1 °F 54% 30.01 in 10.0 mi NNW 5.8 mph - N/A   Scattered Clouds
2:38 PM 82.4 °F 88.2 °F 73.4 °F 74% 30.02 in 2.5 mi WNW 10.4 mph 16.1 mph 0.01 in Rain , Thunderstorm Thunderstorms and Rain
2:45 PM 78.8 °F - 71.6 °F 78% 30.02 in 3.0 mi SSW 15.0 mph 24.2 mph 0.06 in Rain , Thunderstorm Thunderstorms and Rain
2:53 PM 77.0 °F - 71.1 °F 82% 30.01 in 3.0 mi SSW 17.3 mph 28.8 mph 0.07 in Rain , Thunderstorm Thunderstorms and Rain
3:01 PM 77.0 °F - 71.6 °F 83% 30.00 in 6.0 mi South 11.5 mph - 0.00 in Rain , Thunderstorm Thunderstorms and Rain
3:30 PM 78.8 °F - 73.4 °F 83% 30.02 in 3.0 mi North 9.2 mph - 0.00 in Rain Light Rain
3:32 PM 78.8 °F - 73.4 °F 83% 30.02 in 1.8 mi NNW 8.1 mph - 0.01 in Rain Heavy Rain
3:39 PM 77.0 °F - 71.6 °F 83% 30.01 in 0.5 mi SW 6.9 mph - 0.19 in Rain Heavy Rain
3:53 PM 75.9 °F - 71.1 °F 85% 30.00 in 10.0 mi SSW 8.1 mph - 0.70 in Rain Light Rain
4:02 PM 77.0 °F - 73.4 °F 89% 29.99 in 10.0 mi SSW 6.9 mph - 0.01 in Rain Light Rain
4:53 PM 82.9 °F 89.4 °F 73.9 °F 74% 29.99 in 10.0 mi WSW 4.6 mph - 0.01 in   Mostly Cloudy
5:53 PM 84.9 °F 93.3 °F 75.0 °F 72% 29.99 in 10.0 mi SW 4.6 mph - N/A   Clear
6:53 PM 84.9 °F 94.1 °F 75.9 °F 74% 29.99 in 10.0 mi SW 6.9 mph - N/A   Clear
7:53 PM 84.9 °F 93.3 °F 75.0 °F 72% 30.02 in 10.0 mi SW 4.6 mph - N/A   Clear
8:29 PM 84.2 °F 92.3 °F 75.2 °F 74% 30.03 in 10.0 mi Calm Calm - N/A Thunderstorm Clear
8:53 PM 84.0 °F 92.6 °F 75.9 °F 76% 30.06 in 10.0 mi SE 3.5 mph - N/A Thunderstorm Thunderstorm
9:53 PM 77.0 °F - 75.0 °F 94% 30.05 in 10.0 mi SSE 4.6 mph - 0.00 in Rain , Thunderstorm Light Thunderstorms and Rain
10:53 PM 77.0 °F - 73.9 °F 90% 30.06 in 10.0 mi SSE 3.5 mph - 0.00 in   Clear
11:53 PM 77.0 °F - 75.0 °F 94% 30.06 in 10.0 mi ENE 3.5 mph - N/A   Clear